Location: Avon School (historical)
(37.7514°N, 90.2201°W)
Time: 04:01:32
(UTC+00:00)

Explorer 7 - Pass Details

Date: 10 November 2024
Orbit: 456 x 598 km, 50.3° (Epoch: 03 December)

Event Time Altitude Azimuth Distance (km) Brightness Sun altitude
Exits shadow 11:44:40 14° 298° (WNW) 1,558 8.5 -10.6°
Maximum altitude 11:47:03 22° 341° (NNW) 1,233 8.3 -10.1°
Drops below altitude 10° 11:50:25 10° 33° (NNE) 1,869 9.8 -9.5°
Sets 11:53:08 0° 49° (NE) 2,794 10.9 -8.9°
